Year,Month,Day,Hour,Minute,Value (Times are PST for temperature in C)
2018,09,28,00,00,16.40
2018,09,28,00,01,16.30
2018,09,28,00,02,16.40
2018,09,28,00,03,16.40
2018,09,28,00,04,16.50
2018,09,28,00,05,16.50
2018,09,28,00,06,16.60
2018,09,28,00,07,16.50
2018,09,28,00,08,16.50
2018,09,28,00,09,16.60
2018,09,28,00,10,16.50
2018,09,28,00,11,16.50
2018,09,28,00,12,16.50
2018,09,28,00,13,16.50
2018,09,28,00,14,16.40
2018,09,28,00,15,16.40
2018,09,28,00,16,16.40
2018,09,28,00,17,16.30
2018,09,28,00,18,16.30
2018,09,28,00,19,16.30
2018,09,28,00,20,16.30
2018,09,28,00,21,16.20
2018,09,28,00,22,16.20
2018,09,28,00,23,16.10
2018,09,28,00,24,16.10
2018,09,28,00,25,16.10
2018,09,28,00,26,16.10
2018,09,28,00,27,16.10
2018,09,28,00,28,16.10
2018,09,28,00,29,16.10
2018,09,28,00,30,16.10
2018,09,28,00,31,16.10
2018,09,28,00,32,16.10
2018,09,28,00,33,16.10
2018,09,28,00,34,16.10
2018,09,28,00,35,16.10
2018,09,28,00,36,16.00
2018,09,28,00,37,16.00
2018,09,28,00,38,15.90
2018,09,28,00,39,15.90
2018,09,28,00,40,15.90
2018,09,28,00,41,15.90
2018,09,28,00,42,15.80
2018,09,28,00,43,15.90
2018,09,28,00,44,15.80
2018,09,28,00,45,15.80
2018,09,28,00,46,15.80
2018,09,28,00,47,15.80
2018,09,28,00,48,15.70
2018,09,28,00,49,15.70
2018,09,28,00,50,15.70
2018,09,28,00,51,15.70
2018,09,28,00,52,15.70
2018,09,28,00,53,15.70
2018,09,28,00,54,15.80
2018,09,28,00,55,15.80
2018,09,28,00,56,15.80
2018,09,28,00,57,15.90
2018,09,28,00,58,15.80
2018,09,28,00,59,15.90
2018,09,28,01,00,15.90
2018,09,28,01,01,15.90
2018,09,28,01,02,15.90
2018,09,28,01,03,15.80
2018,09,28,01,04,15.80
2018,09,28,01,05,15.80
2018,09,28,01,06,15.70
2018,09,28,01,07,15.70
2018,09,28,01,08,15.60
2018,09,28,01,09,15.50
2018,09,28,01,10,15.40
2018,09,28,01,11,15.40
2018,09,28,01,12,15.40
2018,09,28,01,13,15.40
2018,09,28,01,14,15.30
2018,09,28,01,15,15.30
2018,09,28,01,16,15.30
2018,09,28,01,17,15.30
2018,09,28,01,18,15.20
2018,09,28,01,19,15.30
2018,09,28,01,20,15.20
2018,09,28,01,21,15.20
2018,09,28,01,22,15.30
2018,09,28,01,23,15.40
2018,09,28,01,24,15.40
2018,09,28,01,25,15.50
2018,09,28,01,26,15.60
2018,09,28,01,27,15.70
2018,09,28,01,28,15.70
2018,09,28,01,29,15.70
2018,09,28,01,30,15.70
2018,09,28,01,31,15.70
2018,09,28,01,32,15.60
2018,09,28,01,33,15.60
2018,09,28,01,34,15.60
2018,09,28,01,35,15.60
2018,09,28,01,36,15.60
2018,09,28,01,37,15.60
2018,09,28,01,38,15.50
2018,09,28,01,39,15.50
2018,09,28,01,40,15.40
2018,09,28,01,41,15.40
2018,09,28,01,42,15.40
2018,09,28,01,43,15.30
2018,09,28,01,44,15.30
2018,09,28,01,45,15.30
2018,09,28,01,46,15.20
2018,09,28,01,47,15.20
2018,09,28,01,48,15.10
2018,09,28,01,49,15.10
2018,09,28,01,50,15.00
2018,09,28,01,51,15.00
2018,09,28,01,52,14.90
2018,09,28,01,53,14.90
2018,09,28,01,54,14.80
2018,09,28,01,55,14.80
2018,09,28,01,56,14.70
2018,09,28,01,57,14.70
2018,09,28,01,58,14.60
2018,09,28,01,59,14.60
2018,09,28,02,00,14.60
2018,09,28,02,01,14.50
2018,09,28,02,02,14.50
2018,09,28,02,03,14.40
2018,09,28,02,04,14.30
2018,09,28,02,05,14.30
2018,09,28,02,06,14.20
2018,09,28,02,07,14.20
2018,09,28,02,08,14.10
2018,09,28,02,09,14.10
2018,09,28,02,10,14.00
2018,09,28,02,11,13.90
2018,09,28,02,12,13.90
2018,09,28,02,13,13.80
2018,09,28,02,14,13.80
2018,09,28,02,15,13.80
2018,09,28,02,16,13.80
2018,09,28,02,17,13.80
2018,09,28,02,18,13.70
2018,09,28,02,19,13.70
2018,09,28,02,20,13.70
2018,09,28,02,21,13.70
2018,09,28,02,22,13.80
2018,09,28,02,23,13.70
2018,09,28,02,24,13.70
2018,09,28,02,25,13.70
2018,09,28,02,26,13.70
2018,09,28,02,27,13.70
2018,09,28,02,28,13.70
2018,09,28,02,29,13.60
2018,09,28,02,30,13.60
2018,09,28,02,31,13.50
2018,09,28,02,32,13.50
2018,09,28,02,33,13.50
2018,09,28,02,34,13.50
2018,09,28,02,35,13.40
2018,09,28,02,36,13.40
2018,09,28,02,37,13.40
2018,09,28,02,38,13.40
2018,09,28,02,39,13.40
2018,09,28,02,40,13.40
2018,09,28,02,41,13.40
2018,09,28,02,42,13.40
2018,09,28,02,43,13.40
2018,09,28,02,44,13.30
2018,09,28,02,45,13.20
2018,09,28,02,46,13.20
2018,09,28,02,47,13.10
2018,09,28,02,48,13.10
2018,09,28,02,49,13.00
2018,09,28,02,50,13.00
2018,09,28,02,51,13.00
2018,09,28,02,52,13.10
2018,09,28,02,53,13.10
2018,09,28,02,54,13.10
2018,09,28,02,55,13.10
2018,09,28,02,56,13.10
2018,09,28,02,57,13.10
2018,09,28,02,58,13.10
2018,09,28,02,59,13.10
2018,09,28,03,00,13.10
2018,09,28,03,01,13.10
2018,09,28,03,02,13.10
2018,09,28,03,03,13.10
2018,09,28,03,04,13.00
2018,09,28,03,05,13.00
2018,09,28,03,06,13.00
2018,09,28,03,07,13.00
2018,09,28,03,08,12.90
2018,09,28,03,09,12.90
2018,09,28,03,10,12.90
2018,09,28,03,11,12.90
2018,09,28,03,12,12.90
2018,09,28,03,13,12.90
2018,09,28,03,14,12.90
2018,09,28,03,15,12.90
2018,09,28,03,16,13.00
2018,09,28,03,17,13.00
2018,09,28,03,18,13.10
2018,09,28,03,19,13.20
2018,09,28,03,20,13.20
2018,09,28,03,21,13.30
2018,09,28,03,22,13.40
2018,09,28,03,23,13.50
2018,09,28,03,24,13.50
2018,09,28,03,25,13.60
2018,09,28,03,26,13.70
2018,09,28,03,27,13.80
2018,09,28,03,28,13.80
2018,09,28,03,29,13.80
2018,09,28,03,30,13.80
2018,09,28,03,31,13.80
2018,09,28,03,32,13.80
2018,09,28,03,33,13.90
2018,09,28,03,34,13.90
2018,09,28,03,35,13.80
2018,09,28,03,36,13.80
2018,09,28,03,37,13.80
2018,09,28,03,38,13.80
2018,09,28,03,39,13.90
2018,09,28,03,40,13.90
2018,09,28,03,41,14.00
2018,09,28,03,42,14.00
2018,09,28,03,43,14.10
2018,09,28,03,44,14.10
2018,09,28,03,45,14.10
2018,09,28,03,46,14.10
2018,09,28,03,47,14.10
2018,09,28,03,48,14.10
2018,09,28,03,49,14.10
2018,09,28,03,50,14.10
2018,09,28,03,51,14.00
2018,09,28,03,52,14.00
2018,09,28,03,53,14.00
2018,09,28,03,54,14.00
2018,09,28,03,55,13.90
2018,09,28,03,56,13.90
2018,09,28,03,57,13.90
2018,09,28,03,58,13.90
2018,09,28,03,59,13.90
2018,09,28,04,00,13.80
2018,09,28,04,01,13.80
2018,09,28,04,02,13.80
2018,09,28,04,03,13.80
2018,09,28,04,04,13.80
2018,09,28,04,05,13.80
2018,09,28,04,06,13.70
2018,09,28,04,07,13.70
2018,09,28,04,08,13.60
2018,09,28,04,09,13.50
2018,09,28,04,10,13.50
2018,09,28,04,11,13.40
2018,09,28,04,12,13.40
2018,09,28,04,13,13.30
2018,09,28,04,14,13.30
2018,09,28,04,15,13.30
2018,09,28,04,16,13.30
2018,09,28,04,17,13.30
2018,09,28,04,18,13.30
2018,09,28,04,19,13.40
2018,09,28,04,20,13.40
2018,09,28,04,21,13.40
2018,09,28,04,22,13.40
2018,09,28,04,23,13.40
2018,09,28,04,24,13.50
2018,09,28,04,25,13.50
2018,09,28,04,26,13.50
2018,09,28,04,27,13.50
2018,09,28,04,28,13.50
2018,09,28,04,29,13.50
2018,09,28,04,30,13.50
2018,09,28,04,31,13.50
2018,09,28,04,32,13.50
2018,09,28,04,33,13.50
2018,09,28,04,34,13.50
2018,09,28,04,35,13.50
2018,09,28,04,36,13.50
2018,09,28,04,37,13.40
2018,09,28,04,38,13.40
2018,09,28,04,39,13.40
2018,09,28,04,40,13.40
2018,09,28,04,41,13.40
2018,09,28,04,42,13.40
2018,09,28,04,43,13.30
2018,09,28,04,44,13.30
2018,09,28,04,45,13.30
2018,09,28,04,46,13.30
2018,09,28,04,47,13.30
2018,09,28,04,48,13.30
2018,09,28,04,49,13.20
2018,09,28,04,50,13.20
2018,09,28,04,51,13.20
2018,09,28,04,52,13.20
2018,09,28,04,53,13.10
2018,09,28,04,54,13.10
2018,09,28,04,55,13.10
2018,09,28,04,56,13.00
2018,09,28,04,57,12.90
2018,09,28,04,58,12.90
2018,09,28,04,59,12.90
2018,09,28,05,00,12.90
2018,09,28,05,01,12.80
2018,09,28,05,02,12.80
2018,09,28,05,03,12.80
2018,09,28,05,04,12.80
2018,09,28,05,05,12.80
2018,09,28,05,06,12.80
2018,09,28,05,07,12.80
2018,09,28,05,08,12.80
2018,09,28,05,09,12.90
2018,09,28,05,10,12.90
2018,09,28,05,11,12.90
2018,09,28,05,12,12.90
2018,09,28,05,13,12.90
2018,09,28,05,14,12.90
2018,09,28,05,15,12.80
2018,09,28,05,16,12.80
2018,09,28,05,17,12.80
2018,09,28,05,18,12.80
2018,09,28,05,19,12.70
2018,09,28,05,20,12.70
2018,09,28,05,21,12.70
2018,09,28,05,22,12.70
2018,09,28,05,23,12.60
2018,09,28,05,24,12.60
2018,09,28,05,25,12.60
2018,09,28,05,26,12.60
2018,09,28,05,27,12.60
2018,09,28,05,28,12.50
2018,09,28,05,29,12.50
2018,09,28,05,30,12.40
2018,09,28,05,31,12.40
2018,09,28,05,32,12.40
2018,09,28,05,33,12.30
2018,09,28,05,34,12.30
2018,09,28,05,35,12.20
2018,09,28,05,36,12.20
2018,09,28,05,37,12.20
2018,09,28,05,38,12.10
2018,09,28,05,39,12.10
2018,09,28,05,40,12.10
2018,09,28,05,41,12.10
2018,09,28,05,42,12.00
2018,09,28,05,43,12.00
2018,09,28,05,44,12.00
2018,09,28,05,45,12.00
2018,09,28,05,46,12.00
2018,09,28,05,47,12.00
2018,09,28,05,48,12.00
2018,09,28,05,49,12.00
2018,09,28,05,50,12.00
2018,09,28,05,51,12.00
2018,09,28,05,52,12.00
2018,09,28,05,53,12.00
2018,09,28,05,54,12.00
2018,09,28,05,55,12.00
2018,09,28,05,56,12.00
2018,09,28,05,57,12.00
2018,09,28,05,58,11.90
2018,09,28,05,59,11.90
2018,09,28,06,00,11.90
2018,09,28,06,01,11.90
2018,09,28,06,02,11.80
2018,09,28,06,03,11.80
2018,09,28,06,04,11.80
2018,09,28,06,05,11.80
2018,09,28,06,06,11.80
2018,09,28,06,07,11.80
2018,09,28,06,08,11.80
2018,09,28,06,09,11.80
2018,09,28,06,10,11.80
2018,09,28,06,11,11.80
2018,09,28,06,12,11.80
2018,09,28,06,13,11.80
2018,09,28,06,14,11.80
2018,09,28,06,15,11.80
2018,09,28,06,16,11.80
2018,09,28,06,17,11.80
2018,09,28,06,18,11.80
2018,09,28,06,19,11.80
2018,09,28,06,20,11.80
2018,09,28,06,21,11.80
2018,09,28,06,22,11.90
2018,09,28,06,23,11.90
2018,09,28,06,24,11.90
2018,09,28,06,25,12.00
2018,09,28,06,26,12.00
2018,09,28,06,27,12.00
2018,09,28,06,28,12.00
2018,09,28,06,29,12.00
2018,09,28,06,30,12.00
2018,09,28,06,31,12.10
2018,09,28,06,32,12.00
2018,09,28,06,33,12.10
2018,09,28,06,34,12.00
2018,09,28,06,35,12.00
2018,09,28,06,36,12.00
2018,09,28,06,37,12.00
2018,09,28,06,38,12.00
2018,09,28,06,39,12.00
2018,09,28,06,40,12.00
2018,09,28,06,41,11.90
2018,09,28,06,42,11.90
2018,09,28,06,43,11.90
2018,09,28,06,44,11.90
2018,09,28,06,45,11.90
2018,09,28,06,46,11.90
2018,09,28,06,47,11.90
2018,09,28,06,48,11.90
2018,09,28,06,49,11.90
2018,09,28,06,50,11.90
2018,09,28,06,51,11.90
2018,09,28,06,52,11.90
2018,09,28,06,53,11.90
2018,09,28,06,54,11.90
2018,09,28,06,55,11.90
2018,09,28,06,56,11.90
2018,09,28,06,57,11.90
2018,09,28,06,58,11.90
2018,09,28,06,59,11.90
2018,09,28,07,00,11.90
2018,09,28,07,01,11.90
2018,09,28,07,02,11.90
2018,09,28,07,03,11.90
2018,09,28,07,04,11.80
2018,09,28,07,05,11.80
2018,09,28,07,06,11.80
2018,09,28,07,07,11.80
2018,09,28,07,08,11.80
2018,09,28,07,09,11.80
2018,09,28,07,10,11.80
2018,09,28,07,11,11.80
2018,09,28,07,12,11.80
2018,09,28,07,13,11.80
2018,09,28,07,14,11.70
2018,09,28,07,15,11.70
2018,09,28,07,16,11.70
2018,09,28,07,17,11.70
2018,09,28,07,18,11.70
2018,09,28,07,19,11.70
2018,09,28,07,20,11.70
2018,09,28,07,21,11.70
2018,09,28,07,22,11.70
2018,09,28,07,23,11.70
2018,09,28,07,24,11.70
2018,09,28,07,25,11.70
2018,09,28,07,26,11.70
2018,09,28,07,27,11.70
2018,09,28,07,28,11.60
2018,09,28,07,29,11.60
2018,09,28,07,30,11.60
2018,09,28,07,31,11.60
2018,09,28,07,32,11.50
2018,09,28,07,33,11.50
2018,09,28,07,34,11.40
2018,09,28,07,35,11.40
2018,09,28,07,36,11.40
2018,09,28,07,37,11.40
2018,09,28,07,38,11.40
2018,09,28,07,39,11.40
2018,09,28,07,40,11.40
2018,09,28,07,41,11.40
2018,09,28,07,42,11.40
2018,09,28,07,43,11.40
2018,09,28,07,44,11.40
2018,09,28,07,45,11.40
2018,09,28,07,46,11.50
2018,09,28,07,47,11.50
2018,09,28,07,48,11.50
2018,09,28,07,49,11.60
2018,09,28,07,50,11.60
2018,09,28,07,51,11.60
2018,09,28,07,52,11.60
2018,09,28,07,53,11.50
2018,09,28,07,54,11.50
2018,09,28,07,55,11.50
2018,09,28,07,56,11.50
2018,09,28,07,57,11.60
2018,09,28,07,58,11.50
2018,09,28,07,59,11.60
2018,09,28,08,00,11.60
2018,09,28,08,01,11.60
2018,09,28,08,02,11.60
2018,09,28,08,03,11.60
2018,09,28,08,04,11.70
2018,09,28,08,05,11.70
2018,09,28,08,06,11.70
2018,09,28,08,07,11.80
2018,09,28,08,08,11.80
2018,09,28,08,09,11.80
2018,09,28,08,10,11.90
2018,09,28,08,11,11.90
2018,09,28,08,12,12.00
2018,09,28,08,13,12.00
2018,09,28,08,14,12.00
2018,09,28,08,15,12.00
2018,09,28,08,16,12.00
2018,09,28,08,17,12.10
2018,09,28,08,18,12.10
2018,09,28,08,19,12.20
2018,09,28,08,20,12.20
2018,09,28,08,21,12.20
2018,09,28,08,22,12.20
2018,09,28,08,23,12.30
2018,09,28,08,24,12.30
2018,09,28,08,25,12.30
2018,09,28,08,26,12.30
2018,09,28,08,27,12.30
2018,09,28,08,28,12.30
2018,09,28,08,29,12.30
2018,09,28,08,30,12.40
2018,09,28,08,31,12.40
2018,09,28,08,32,12.40
2018,09,28,08,33,12.50
2018,09,28,08,34,12.50
2018,09,28,08,35,12.50
2018,09,28,08,36,12.50
2018,09,28,08,37,12.50
2018,09,28,08,38,12.60
2018,09,28,08,39,12.60
2018,09,28,08,40,12.60
2018,09,28,08,41,12.60
2018,09,28,08,42,12.60
2018,09,28,08,43,12.60
2018,09,28,08,44,12.60
2018,09,28,08,45,12.70
2018,09,28,08,46,12.70
2018,09,28,08,47,12.70
2018,09,28,08,48,12.80
2018,09,28,08,49,12.80
2018,09,28,08,50,12.80
2018,09,28,08,51,12.90
2018,09,28,08,52,13.00
2018,09,28,08,53,13.00
2018,09,28,08,54,13.00
2018,09,28,08,55,13.10
2018,09,28,08,56,13.10
2018,09,28,08,57,13.10
2018,09,28,08,58,13.10
2018,09,28,08,59,13.10
2018,09,28,09,00,13.10
2018,09,28,09,01,13.10
2018,09,28,09,02,13.20
2018,09,28,09,03,13.20
2018,09,28,09,04,13.20
2018,09,28,09,05,13.20
2018,09,28,09,06,13.20
2018,09,28,09,07,13.20
2018,09,28,09,08,13.20
2018,09,28,09,09,13.20
2018,09,28,09,10,13.20
2018,09,28,09,11,13.20
2018,09,28,09,12,13.20
2018,09,28,09,13,13.20
2018,09,28,09,14,13.20
2018,09,28,09,15,13.20
2018,09,28,09,16,13.30
2018,09,28,09,17,13.30
2018,09,28,09,18,13.30
2018,09,28,09,19,13.30
2018,09,28,09,20,13.30
2018,09,28,09,21,13.30
2018,09,28,09,22,13.30
2018,09,28,09,23,13.30
2018,09,28,09,24,13.40
2018,09,28,09,25,13.40
2018,09,28,09,26,13.40
2018,09,28,09,27,13.40
2018,09,28,09,28,13.50
2018,09,28,09,29,13.50
2018,09,28,09,30,13.50
2018,09,28,09,31,13.60
2018,09,28,09,32,13.60
2018,09,28,09,33,13.60
2018,09,28,09,34,13.60
2018,09,28,09,35,13.70
2018,09,28,09,36,13.70
2018,09,28,09,37,13.70
2018,09,28,09,38,13.70
2018,09,28,09,39,13.70
2018,09,28,09,40,13.80
2018,09,28,09,41,13.80
2018,09,28,09,42,13.80
2018,09,28,09,43,13.80
2018,09,28,09,44,13.90
2018,09,28,09,45,13.90
2018,09,28,09,46,14.00
2018,09,28,09,47,14.00
2018,09,28,09,48,14.10
2018,09,28,09,49,14.20
2018,09,28,09,50,14.30
2018,09,28,09,51,14.30
2018,09,28,09,52,14.40
2018,09,28,09,53,14.50
2018,09,28,09,54,14.60
2018,09,28,09,55,14.70
2018,09,28,09,56,14.80
2018,09,28,09,57,14.90
2018,09,28,09,58,15.00
2018,09,28,09,59,15.10
2018,09,28,10,00,15.10
2018,09,28,10,01,15.20
2018,09,28,10,02,15.30
2018,09,28,10,03,15.40
2018,09,28,10,04,15.40
2018,09,28,10,05,15.50
2018,09,28,10,06,15.50
2018,09,28,10,07,15.60
2018,09,28,10,08,15.60
2018,09,28,10,09,15.60
2018,09,28,10,10,15.70
2018,09,28,10,11,15.70
2018,09,28,10,12,15.70
2018,09,28,10,13,15.80
2018,09,28,10,14,15.80
2018,09,28,10,15,15.90
2018,09,28,10,16,16.00
2018,09,28,10,17,16.00
2018,09,28,10,18,16.20
2018,09,28,10,19,16.20
2018,09,28,10,20,16.30
2018,09,28,10,21,16.40
2018,09,28,10,22,16.40
2018,09,28,10,23,16.60
2018,09,28,10,24,16.60
2018,09,28,10,25,16.80
2018,09,28,10,26,16.90
2018,09,28,10,27,17.00
2018,09,28,10,28,17.10
2018,09,28,10,29,17.20
2018,09,28,10,30,17.30
2018,09,28,10,31,17.40
2018,09,28,10,32,17.60
2018,09,28,10,33,17.70
2018,09,28,10,34,17.80
2018,09,28,10,35,18.00
2018,09,28,10,36,18.10
2018,09,28,10,37,18.20
2018,09,28,10,38,18.40
2018,09,28,10,39,18.40
2018,09,28,10,40,18.50
2018,09,28,10,41,18.60
2018,09,28,10,42,18.70
2018,09,28,10,43,18.70
2018,09,28,10,44,18.80
2018,09,28,10,45,18.80
2018,09,28,10,46,18.80
2018,09,28,10,47,18.90
2018,09,28,10,48,18.90
2018,09,28,10,49,19.00
2018,09,28,10,50,19.00
2018,09,28,10,51,19.10
2018,09,28,10,52,19.10
2018,09,28,10,53,19.20
2018,09,28,10,54,19.20
2018,09,28,10,55,19.30
2018,09,28,10,56,19.30
2018,09,28,10,57,19.30
2018,09,28,10,58,19.30
2018,09,28,10,59,19.30
2018,09,28,11,00,19.30
2018,09,28,11,01,19.30
2018,09,28,11,02,19.30
2018,09,28,11,03,19.40
2018,09,28,11,04,19.40
2018,09,28,11,05,19.50
2018,09,28,11,06,19.60
2018,09,28,11,07,19.60
2018,09,28,11,08,19.60
2018,09,28,11,09,19.60
2018,09,28,11,10,19.60
2018,09,28,11,11,19.60
2018,09,28,11,12,19.50
2018,09,28,11,13,19.40
2018,09,28,11,14,19.30
2018,09,28,11,15,19.30
2018,09,28,11,16,19.30
2018,09,28,11,17,19.30
2018,09,28,11,18,19.30
2018,09,28,11,19,19.30
2018,09,28,11,20,19.40
2018,09,28,11,21,19.40
2018,09,28,11,22,19.50
2018,09,28,11,23,19.50
2018,09,28,11,24,19.50
2018,09,28,11,25,19.40
2018,09,28,11,26,19.50
2018,09,28,11,27,19.40
2018,09,28,11,28,19.40
2018,09,28,11,29,19.40
2018,09,28,11,30,19.40
2018,09,28,11,31,19.50
2018,09,28,11,32,19.50
2018,09,28,11,33,19.60
2018,09,28,11,34,19.60
2018,09,28,11,35,19.60
2018,09,28,11,36,19.70
2018,09,28,11,37,19.80
2018,09,28,11,38,19.80
2018,09,28,11,39,19.80
2018,09,28,11,40,19.80
2018,09,28,11,41,19.80
2018,09,28,11,42,19.80
2018,09,28,11,43,19.80
2018,09,28,11,44,19.80
2018,09,28,11,45,19.80
2018,09,28,11,46,19.80
2018,09,28,11,47,19.90
2018,09,28,11,48,19.90
2018,09,28,11,49,19.90
2018,09,28,11,50,19.90
2018,09,28,11,51,19.90
2018,09,28,11,52,20.00
2018,09,28,11,53,20.00
2018,09,28,11,54,20.00
2018,09,28,11,55,20.00
2018,09,28,11,56,20.00
2018,09,28,11,57,20.00
2018,09,28,11,58,19.90
2018,09,28,11,59,19.90
2018,09,28,12,00,19.80
2018,09,28,12,01,19.80
2018,09,28,12,02,19.90
2018,09,28,12,03,19.90
2018,09,28,12,04,20.00
2018,09,28,12,05,20.00
2018,09,28,12,06,20.10
2018,09,28,12,07,20.10
2018,09,28,12,08,20.20
2018,09,28,12,09,20.20
2018,09,28,12,10,20.30
2018,09,28,12,11,20.30
2018,09,28,12,12,20.40
2018,09,28,12,13,20.40
2018,09,28,12,14,20.50
2018,09,28,12,15,20.60
2018,09,28,12,16,20.60
2018,09,28,12,17,20.70
2018,09,28,12,18,20.70
2018,09,28,12,19,20.70
2018,09,28,12,20,20.70
2018,09,28,12,21,20.60
2018,09,28,12,22,20.60
2018,09,28,12,23,20.50
2018,09,28,12,24,20.30
2018,09,28,12,25,20.10
2018,09,28,12,26,20.00
2018,09,28,12,27,19.70
2018,09,28,12,28,19.50
2018,09,28,12,29,19.40
2018,09,28,12,30,19.40
2018,09,28,12,31,19.30
2018,09,28,12,32,19.30
2018,09,28,12,33,19.30
2018,09,28,12,34,19.30
2018,09,28,12,35,19.30
2018,09,28,12,36,19.40
2018,09,28,12,37,19.40
2018,09,28,12,38,19.40
2018,09,28,12,39,19.40
2018,09,28,12,40,19.50
2018,09,28,12,41,19.50
2018,09,28,12,42,19.50
2018,09,28,12,43,19.50
2018,09,28,12,44,19.50
2018,09,28,12,45,19.50
2018,09,28,12,46,19.50
2018,09,28,12,47,19.50
2018,09,28,12,48,19.50
2018,09,28,12,49,19.50
2018,09,28,12,50,19.60
2018,09,28,12,51,19.60
2018,09,28,12,52,19.60
2018,09,28,12,53,19.60
2018,09,28,12,54,19.60
2018,09,28,12,55,19.70
2018,09,28,12,56,19.70
2018,09,28,12,57,19.70
2018,09,28,12,58,19.70
2018,09,28,12,59,19.60
2018,09,28,13,00,19.60
2018,09,28,13,01,19.60
2018,09,28,13,02,19.60
2018,09,28,13,03,19.60
2018,09,28,13,04,19.60
2018,09,28,13,05,19.60
2018,09,28,13,06,19.70
2018,09,28,13,07,19.70
2018,09,28,13,08,19.80
2018,09,28,13,09,19.80
2018,09,28,13,10,19.90
2018,09,28,13,11,19.90
2018,09,28,13,12,20.00
2018,09,28,13,13,20.10
2018,09,28,13,14,20.20
2018,09,28,13,15,20.20
2018,09,28,13,16,20.20
2018,09,28,13,17,20.20
2018,09,28,13,18,20.20
2018,09,28,13,19,20.20
2018,09,28,13,20,20.20
2018,09,28,13,21,20.30
2018,09,28,13,22,20.30
2018,09,28,13,23,20.30
2018,09,28,13,24,20.30
2018,09,28,13,25,20.30
2018,09,28,13,26,20.20
2018,09,28,13,27,20.20
2018,09,28,13,28,20.20
2018,09,28,13,29,20.20
2018,09,28,13,30,20.20
2018,09,28,13,31,20.30
2018,09,28,13,32,20.30
2018,09,28,13,33,20.30
2018,09,28,13,34,20.40
2018,09,28,13,35,20.50
2018,09,28,13,36,20.60
2018,09,28,13,37,20.60
2018,09,28,13,38,20.70
2018,09,28,13,39,20.70
2018,09,28,13,40,20.80
2018,09,28,13,41,20.80
2018,09,28,13,42,20.80
2018,09,28,13,43,20.90
2018,09,28,13,44,20.90
2018,09,28,13,45,20.90
2018,09,28,13,46,20.90
2018,09,28,13,47,21.00
2018,09,28,13,48,21.00
2018,09,28,13,49,21.10
2018,09,28,13,50,21.10
2018,09,28,13,51,21.10
2018,09,28,13,52,21.10
2018,09,28,13,53,21.20
2018,09,28,13,54,21.20
2018,09,28,13,55,21.20
2018,09,28,13,56,21.30
2018,09,28,13,57,21.30
2018,09,28,13,58,21.30
2018,09,28,13,59,21.40
2018,09,28,14,00,21.40
2018,09,28,14,01,21.40
2018,09,28,14,02,21.40
2018,09,28,14,03,21.40
2018,09,28,14,04,21.40
2018,09,28,14,05,21.40
2018,09,28,14,06,21.40
2018,09,28,14,07,21.50
2018,09,28,14,08,21.60
2018,09,28,14,09,21.60
2018,09,28,14,10,21.60
2018,09,28,14,11,21.60
2018,09,28,14,12,21.70
2018,09,28,14,13,21.70
2018,09,28,14,14,21.80
2018,09,28,14,15,21.80
2018,09,28,14,16,21.80
2018,09,28,14,17,21.80
2018,09,28,14,18,21.80
2018,09,28,14,19,21.70
2018,09,28,14,20,21.70
2018,09,28,14,21,21.70
2018,09,28,14,22,21.70
2018,09,28,14,23,21.70
2018,09,28,14,24,21.70
2018,09,28,14,25,21.70
2018,09,28,14,26,21.70
2018,09,28,14,27,21.70
2018,09,28,14,28,21.60
2018,09,28,14,29,21.60
2018,09,28,14,30,21.60
2018,09,28,14,31,21.60
2018,09,28,14,32,21.60
2018,09,28,14,33,21.60
2018,09,28,14,34,21.60
2018,09,28,14,35,21.70
2018,09,28,14,36,21.70
2018,09,28,14,37,21.70
2018,09,28,14,38,21.70
2018,09,28,14,39,21.70
2018,09,28,14,40,21.70
2018,09,28,14,41,21.70
2018,09,28,14,42,21.70
2018,09,28,14,43,21.70
2018,09,28,14,44,21.70
2018,09,28,14,45,21.70
2018,09,28,14,46,21.70
2018,09,28,14,47,21.70
2018,09,28,14,48,21.70
2018,09,28,14,49,21.70
2018,09,28,14,50,21.70
2018,09,28,14,51,21.60
2018,09,28,14,52,21.60
2018,09,28,14,53,21.70
2018,09,28,14,54,21.70
2018,09,28,14,55,21.70
2018,09,28,14,56,21.70
2018,09,28,14,57,21.70
2018,09,28,14,58,21.80
2018,09,28,14,59,21.80
2018,09,28,15,00,21.80
2018,09,28,15,01,21.80
2018,09,28,15,02,21.80
2018,09,28,15,03,21.90
2018,09,28,15,04,21.90
2018,09,28,15,05,21.90
2018,09,28,15,06,21.90
2018,09,28,15,07,21.90
2018,09,28,15,08,21.90
2018,09,28,15,09,21.90
2018,09,28,15,10,21.80
2018,09,28,15,11,21.80
2018,09,28,15,12,21.80
2018,09,28,15,13,21.70
2018,09,28,15,14,21.70
2018,09,28,15,15,21.70
2018,09,28,15,16,21.70
2018,09,28,15,17,21.80
2018,09,28,15,18,21.80
2018,09,28,15,19,21.80
2018,09,28,15,20,21.80
2018,09,28,15,21,21.80
2018,09,28,15,22,21.80
2018,09,28,15,23,21.80
2018,09,28,15,24,21.90
2018,09,28,15,25,21.90
2018,09,28,15,26,21.90
2018,09,28,15,27,21.90
2018,09,28,15,28,21.90
2018,09,28,15,29,21.90
2018,09,28,15,30,21.80
2018,09,28,15,31,21.70
2018,09,28,15,32,21.70
2018,09,28,15,33,21.60
2018,09,28,15,34,21.40
2018,09,28,15,35,21.30
2018,09,28,15,36,21.30
2018,09,28,15,37,21.20
2018,09,28,15,38,21.10
2018,09,28,15,39,21.20
2018,09,28,15,40,21.10
2018,09,28,15,41,21.10
2018,09,28,15,42,21.10
2018,09,28,15,43,21.00
2018,09,28,15,44,20.90
2018,09,28,15,45,20.90
2018,09,28,15,46,20.80
2018,09,28,15,47,20.80
2018,09,28,15,48,20.70
2018,09,28,15,49,20.70
2018,09,28,15,50,20.60
2018,09,28,15,51,20.60
2018,09,28,15,52,20.50
2018,09,28,15,53,20.50
2018,09,28,15,54,20.40
2018,09,28,15,55,20.40
2018,09,28,15,56,20.40
2018,09,28,15,57,20.40
2018,09,28,15,58,20.40
2018,09,28,15,59,20.40
2018,09,28,16,00,20.40
2018,09,28,16,01,20.50
2018,09,28,16,02,20.60
2018,09,28,16,03,20.60
2018,09,28,16,04,20.70
2018,09,28,16,05,20.80
2018,09,28,16,06,20.90
2018,09,28,16,07,20.90
2018,09,28,16,08,21.00
2018,09,28,16,09,21.00
2018,09,28,16,10,21.10
2018,09,28,16,11,21.10
2018,09,28,16,12,21.10
2018,09,28,16,13,21.10
2018,09,28,16,14,21.10
2018,09,28,16,15,21.10
2018,09,28,16,16,21.10
2018,09,28,16,17,21.10
2018,09,28,16,18,21.10
2018,09,28,16,19,21.10
2018,09,28,16,20,21.00
2018,09,28,16,21,21.00
2018,09,28,16,22,21.00
2018,09,28,16,23,20.90
2018,09,28,16,24,20.90
2018,09,28,16,25,20.90
2018,09,28,16,26,20.90
2018,09,28,16,27,20.90
2018,09,28,16,28,20.90
2018,09,28,16,29,20.80
2018,09,28,16,30,20.80
2018,09,28,16,31,20.80
2018,09,28,16,32,20.80
2018,09,28,16,33,20.80
2018,09,28,16,34,20.80
2018,09,28,16,35,20.90
2018,09,28,16,36,20.90
2018,09,28,16,37,21.00
2018,09,28,16,38,21.00
2018,09,28,16,39,21.10
2018,09,28,16,40,21.10
2018,09,28,16,41,21.10
2018,09,28,16,42,21.10
2018,09,28,16,43,21.10
2018,09,28,16,44,21.10
2018,09,28,16,45,21.10
2018,09,28,16,46,21.10
2018,09,28,16,47,21.00
2018,09,28,16,48,21.00
2018,09,28,16,49,21.00
2018,09,28,16,50,20.90
2018,09,28,16,51,20.90
2018,09,28,16,52,20.90
2018,09,28,16,53,20.90
2018,09,28,16,54,20.90
2018,09,28,16,55,20.90
2018,09,28,16,56,20.80
2018,09,28,16,57,20.80
2018,09,28,16,58,20.80
2018,09,28,16,59,20.80
2018,09,28,17,00,20.80
2018,09,28,17,01,20.80
2018,09,28,17,02,20.80
2018,09,28,17,03,20.80
2018,09,28,17,04,20.80
2018,09,28,17,05,20.70
2018,09,28,17,06,20.70
2018,09,28,17,07,20.70
2018,09,28,17,08,20.60
2018,09,28,17,09,20.60
2018,09,28,17,10,20.60
2018,09,28,17,11,20.60
2018,09,28,17,12,20.50
2018,09,28,17,13,20.50
2018,09,28,17,14,20.40
2018,09,28,17,15,20.30
2018,09,28,17,16,20.30
2018,09,28,17,17,20.20
2018,09,28,17,18,20.10
2018,09,28,17,19,20.00